STARLINK-1329, 45531

Orbit data source: Space-Track

STARLINK-1329, 45531 is a payload satellite owned by SpaceX/Seattle (US) in LEO that was launched on Wed, 22 Apr 2020 UTC via an FALCON 9 launch vehicle from the Air Force Eastern Test Range (AFETR). Payload-class satellites include a variety of spacecraft equipped with specific instruments for various scientific and technological missions. These include communications satellites like Starlink; space stations such as the ISS; scientific satellites like the Hubble; Earth observation satellites from companies like Planet Labs, Umbra, and HawkEye 360; GPS; miniature CubeSats for education and research; and military/defense satellites.

Loading next visibility...
Identifier
45531, 2020-025A
Orbit
LEO
Country
Flag of USUS
Related business
Manufacturer
SpaceX/Seattle
Mission
Partially operational Commercial Communications
Bus & Motor
STARLINK, Unknown motor
Mass
260 kg wet, ~248 kg dry
Launch date (UTC)
2020-04-22 (6 years ago)
Launch vehicle
FALCON 9
Launch site
Air Force Eastern Test Range (AFETR)
Object type
Payload
Rocket body
Debris
Shape & HBR
Box + 1 Pan, 10.1 m
Radar Cross Section
13.562 m², Large (>1 m²)

Expand to show TLE details & history
Last TLE update: 8 hours ago

TLE from 8 hours ago
0 STARLINK-1329
1 45531U 20025A   26170.56599803  .00062606  00000-0  41641-3 0  9997
2 45531  53.0417 299.1587 0001435 259.8465 100.2392 15.74853356341432
Epoch: 2026-06-19T13:35Z
TLE epoch observation values (Epoch: 2026-06-19T13:35:02.229Z)
Latitude
-0.00002°
Longitude
-172.39374°
Altitude
346.124 km
Speed
7.702 km/s
True Right ascension
19h 56m 38s
True Declination
0° 00' 00"
Sunlit
Object was in full shadow at epoch
Visualization orbit readout
Latitude
Unknown
Longitude
Unknown
Altitude
Unknown
Speed
Unknown
Apparent Right ascension
Unknown
Apparent Declination
Unknown
Sunlit
N/A
Visualization observer readout
Local Sidereal Time
08:11:53
Azimuth
Unknown
Elevation
Unknown
Doppler factor
Unknown
Orbital elements
Apogee altitude
346.294 km
Perigee altitude
344.364 km
Semi-major axis
6,723.466 km
Eccentricity
0.00014
Inclination
53.0417°
RAAN
299.1587°
Arg. of periapsis
259.8465°
True anomaly
100.25538°
Mean anomaly
100.2392°
Eccentric anomaly
100.24729°
Mean motion
3.93689 °/min
Orbital period
91.44 mins
BSTAR
0.00041641
Loading maneuver chart data...
Computing Atmospheric mass density...

Documentation

Showing up to 5 results
|